Regional Weather Roundup
Issued by NWS

Home | Current Version | Previous Version | Text Only | Print | Product List | Glossary On
Versions: 1 2 3 4 5 6 7 8 9 10 11 12 13 14 15 16 17 18 19 20 21 22 23 24 25 26 27 28 29 30 31 32 33 34 35 36 37 38 39 40 41 42 43 44 45 46 47 48 49 50
968
ASUS44 KJAN 271410
RWRMS

MISSISSIPPI HOURLY WEATHER ROUNDUP
NATIONAL WEATHER SERVICE JACKSON MS
900 AM CDT FRI MAR 27 2015

NOTE: "FAIR: INDICATES FEW OR NO CLOUDS BELOW 12,000 FEET WITH NO
SIGNIFICANT WEATHER AND/OR OBSTRUCTIONS TO VISIBILITY.

MSZ001>002-007>008-010>013-018>021-025>028-034>036-271500-
NORTHWEST MISSISSIPPI

CITY           SKY/WX    TMP DP  RH WIND       PRES   REMARKS
CLARKSDALE     FAIR      45  37  76 NW5       30.11R
CLEVELAND      FAIR      45  38  76 N5        30.10R
GREENWOOD      SUNNY     45  36  70 N6        30.09R
GREENVILLE     SUNNY     47  37  68 N3        30.10R
OLIVE BRANCH   PTSUNNY   39  39 100 NW5       30.08S
OXFORD         FAIR      39  36  87 NW5       30.09S
TUNICA         MOSUNNY   45  37  76 NW6       30.11R
$$

MSZ003>006-009-014>017-022>024-029>033-037>039-271500-
NORTHEAST MISSISSIPPI

CITY           SKY/WX    TMP DP  RH WIND       PRES   REMARKS
COLUMBUS AFB   SUNNY     46  35  67 N12       30.04S
CORINTH        FAIR      43  36  75 VRB5      30.05R
GOLDN TRIANGLE MOSUNNY   46  34  61 N12G21    30.04S
STARKVILLE     FAIR      43  36  75 N8        30.06R
TUPELO         SUNNY     44  34  67 NE8       30.05R
$$

MSZ040-058-271500-
CENTRAL MISSISSIPPI

CITY           SKY/WX    TMP DP  RH WIND       PRES   REMARKS
JACKSON INTL   SUNNY     47  37  68 N9        30.08R
JACKSON HAWKNS SUNNY     45  37  73 VRB3      30.08R
MERIDIAN KEY   SUNNY     48  37  65 N10       30.04R
MERIDIAN NAS   MOSUNNY   46  36  68 NW14      30.03R
RAYMOND        FAIR      46  41  81 N3        30.09R
VICKSBURG      SUNNY     49  37  63 N6        30.11R
$$

MSZ059>079-271500-
SOUTH MISSISSIPPI

CITY           SKY/WX    TMP DP  RH WIND       PRES   REMARKS
BROOKHAVEN     FAIR      46  39  76 N8        30.09R
HATTIESBURG    MOSUNNY   49  40  71 NW14G21   30.06R
MCCOMB         SUNNY     49  34  56 N10       30.08R
NATCHEZ        SUNNY     48  39  71 N6        30.12R
PINE BELT      MOSUNNY   48  37  66 N12G17    30.05R
$$

MSZ080>082-271500-
COASTAL MISSISSIPPI

CITY           SKY/WX    TMP DP  RH WIND       PRES   REMARKS
BAY ST LOUIS   SUNNY     52  39  62 N12G17    30.05R
BILOXI         MOSUNNY   54  45  72 N12G22    30.00R
PASCAGOULA     CLOUDY    52  45  77 N12G20    30.00R
GULFPORT       MOSUNNY   53  43  68 N17G23    30.01R
$$



USA.gov is the U.S. government's official web portal to all federal, state and local government web resources and services.